WXM80 ListenWXM80 Stop

You find our weather info also at:

UK Metoffice

WeatherCloud

Weather Underground

Northeastern Weather Network

AWEKAS

Citizen Weather Observer Program (CWOP)

HAMweather, WeatherForYou, PWS Weather


Weather Underground History page Text

Daily Summary for February 16, 2019 Units:  Metric    English   Both
« Previous Day
Next Day »
Daily Weekly Monthly Yearly Custom
  Current: High: Low: Average:
Temperature: 6.9 °C 8.6 °C 1.6 °C 4.9 °C
Dew Point: -4.8 °C 3.8 °C -5 °C -2.7 °C
Humidity: 43 % 72 % 43 % 58 %
Wind Speed: 6 km/h 14.8 km/h 0 km/h 5.3 km/h
Wind Gust: 18.5 km/h 22.5 km/h - -
Wind:SW - - WNW
Pressure: 1009.7 hPa 1010.7 hPa 1004.6 hPa -
Precipitation: 0 mm      
Historical Graphs
 
 
Tabular Data for February 16, 2019
Time Temperature Dew Point Pressure Wind Wind Speed Wind Gust Humidity Rainfall Rate (Hourly)
00:04 8.6 °C 3.8 °C 1004.6 hPa WNW 8 km/h 22.2 km/h 72 % 0 mm
00:09 8.5 °C 3.1 °C 1004.6 hPa NNW 9.3 km/h 19.3 km/h 69 % 0 mm
00:14 8.3 °C 2.3 °C 1005 hPa WNW 13.4 km/h 20.4 km/h 66 % 0 mm
00:19 8.2 °C 2 °C 1005 hPa NW 10.5 km/h 16.7 km/h 65 % 0 mm
00:24 8 °C 1.6 °C 1005 hPa NW 7.2 km/h 18.5 km/h 64 % 0 mm
00:29 7.9 °C 1.1 °C 1005 hPa West 8.4 km/h 14.8 km/h 62 % 0 mm
00:34 7.8 °C 1.2 °C 1005.3 hPa WNW 3.7 km/h 11.3 km/h 63 % 0 mm
00:39 7.8 °C 1.4 °C 1005.3 hPa NW 5.1 km/h 7.4 km/h 64 % 0 mm
00:44 7.7 °C 1.3 °C 1005.3 hPa WNW 1.1 km/h 6.4 km/h 64 % 0 mm
00:49 7.6 °C 1.4 °C 1005.3 hPa WNW 6 km/h 11.1 km/h 65 % 0 mm
00:54 7.5 °C 1.3 °C 1005.6 hPa West 2.4 km/h 11.3 km/h 65 % 0 mm
00:59 7.4 °C 1.2 °C 1005.6 hPa NW 1.3 km/h 8 km/h 65 % 0 mm
01:04 7.3 °C 1.3 °C 1005.6 hPa WNW 6.1 km/h 9.3 km/h 66 % 0 mm
01:09 7.2 °C 1 °C 1005.6 hPa West 1.3 km/h 9.7 km/h 65 % 0 mm
01:14 7.1 °C 0.9 °C 1005.6 hPa WNW 1.9 km/h 7.4 km/h 65 % 0 mm
01:19 7 °C 0.9 °C 1005.6 hPa Calm   1.9 km/h 65 % 0 mm
01:24 6.9 °C 0.8 °C 1006 hPa WNW 4.5 km/h 9.3 km/h 65 % 0 mm
01:29 6.8 °C 0.7 °C 1006 hPa WNW 0.6 km/h 11.1 km/h 65 % 0 mm
01:34 6.7 °C 0.6 °C 1006 hPa WNW 4.2 km/h 9.3 km/h 65 % 0 mm
01:39 6.6 °C 0.4 °C 1006 hPa WNW 0.2 km/h 7.4 km/h 65 % 0 mm
01:44 6.5 °C 0.4 °C 1006 hPa West 4.5 km/h 9.3 km/h 65 % 0 mm
01:49 6.4 °C 0.3 °C 1006 hPa Calm   5.6 km/h 65 % 0 mm
01:54 6.3 °C 0.2 °C 1006 hPa NW 1.6 km/h 8 km/h 65 % 0 mm
01:59 6.1 °C 0 °C 1006 hPa West 6.4 km/h 9.3 km/h 65 % 0 mm
02:04 6 °C -0.1 °C 1006 hPa WNW 6.6 km/h 14.5 km/h 65 % 0 mm
02:09 5.9 °C -0.4 °C 1006 hPa WNW 7.1 km/h 11.1 km/h 64 % 0 mm
02:14 5.7 °C -0.3 °C 1006 hPa WNW 7.2 km/h 13 km/h 65 % 0 mm
02:19 5.6 °C -0.2 °C 1006 hPa WNW 7.6 km/h 13 km/h 66 % 0 mm
02:24 5.5 °C -0.6 °C 1006 hPa NW 3.7 km/h 16.7 km/h 65 % 0 mm
02:29 5.4 °C -0.6 °C 1006.3 hPa WNW 9.5 km/h 14.8 km/h 65 % 0 mm
02:34 5.3 °C -0.5 °C 1006.3 hPa WNW 6 km/h 13 km/h 66 % 0 mm
02:39 5.3 °C -0.6 °C 1006.3 hPa NW 8.2 km/h 12.9 km/h 66 % 0 mm
02:44 5.2 °C -0.4 °C 1006.3 hPa WNW 5.3 km/h 9.7 km/h 67 % 0 mm
02:49 5.1 °C -0.4 °C 1006.3 hPa WNW 1.4 km/h 7.4 km/h 68 % 0 mm
02:54 4.9 °C -0.3 °C 1006.3 hPa WNW 6.1 km/h 11.3 km/h 69 % 0 mm
02:59 4.8 °C -0.6 °C 1006.3 hPa WNW 2.3 km/h 11.1 km/h 68 % 0 mm
03:04 4.7 °C -0.9 °C 1006.3 hPa NW 9 km/h 16.7 km/h 67 % 0 mm
03:09 4.6 °C -1.4 °C 1006.3 hPa WNW 7.2 km/h 11.3 km/h 65 % 0 mm
03:14 4.5 °C -1.7 °C 1006.7 hPa WNW 7.4 km/h 22.2 km/h 64 % 0 mm
03:19 4.4 °C -1.8 °C 1006.7 hPa WNW 8 km/h 13 km/h 64 % 0 mm
03:24 4.4 °C -2 °C 1006.7 hPa WNW 7.6 km/h 18.5 km/h 63 % 0 mm
03:29 4.4 °C -2.5 °C 1006.7 hPa NW 8.7 km/h 17.7 km/h 61 % 0 mm
03:34 4.3 °C -2.6 °C 1006.7 hPa NW 5.1 km/h 14.8 km/h 61 % 0 mm
03:39 4.3 °C -3 °C 1006.7 hPa North 5.3 km/h 11.1 km/h 59 % 0 mm
03:44 4.3 °C -2.8 °C 1007 hPa NW 9.7 km/h 14.8 km/h 60 % 0 mm
03:49 4.3 °C -2.6 °C 1007 hPa NW 6.3 km/h 9.3 km/h 61 % 0 mm
03:54 4.2 °C -2.4 °C 1007 hPa NW 8 km/h 16.7 km/h 62 % 0 mm
03:59 4.2 °C -2.5 °C 1007 hPa NNW 6.6 km/h 16.1 km/h 62 % 0 mm
04:04 4.1 °C -2.7 °C 1007 hPa NW 7.2 km/h 20.4 km/h 61 % 0 mm
04:09 4.1 °C -3 °C 1007 hPa NW 6 km/h 13 km/h 60 % 0 mm
04:14 4 °C -3.1 °C 1007 hPa WNW 7.6 km/h 13 km/h 60 % 0 mm
04:19 4 °C -2.8 °C 1007.3 hPa NW 6.8 km/h 14.8 km/h 61 % 0 mm
04:24 3.9 °C -2.7 °C 1007 hPa WNW 8.4 km/h 16.7 km/h 62 % 0 mm
04:29 3.9 °C -2.7 °C 1007.3 hPa West 2.4 km/h 5.6 km/h 62 % 0 mm
04:34 3.8 °C -2.8 °C 1007.3 hPa WNW 5.8 km/h 9.7 km/h 62 % 0 mm
04:39 3.8 °C -3.1 °C 1007.3 hPa NW 9.5 km/h 9.7 km/h 61 % 0 mm
04:44 3.7 °C -3.3 °C 1007.7 hPa WNW 10.1 km/h 14.8 km/h 60 % 0 mm
04:49 3.7 °C -3.4 °C 1007.7 hPa NW 7.9 km/h 16.7 km/h 60 % 0 mm
04:54 3.6 °C -3.4 °C 1007.7 hPa West 2.7 km/h 13 km/h 60 % 0 mm
04:59 3.6 °C -3.5 °C 1008 hPa WNW 3.2 km/h 16.7 km/h 60 % 0 mm
05:04 3.5 °C -3.3 °C 1008 hPa NW 6 km/h 14.8 km/h 61 % 0 mm
05:09 3.5 °C -3.3 °C 1008 hPa NW 1.4 km/h 11.1 km/h 61 % 0 mm
05:14 3.4 °C -3.2 °C 1008 hPa WNW 6.4 km/h 7.4 km/h 62 % 0 mm
05:19 3.4 °C -3.4 °C 1008 hPa West 5 km/h 12.9 km/h 61 % 0 mm
05:24 3.4 °C -3.2 °C 1008 hPa WNW 4.7 km/h 9.3 km/h 62 % 0 mm
05:29 3.4 °C -3.2 °C 1008 hPa West 3.5 km/h 9.3 km/h 62 % 0 mm
05:34 3.3 °C -3.3 °C 1008.4 hPa NW 5.8 km/h 9.7 km/h 62 % 0 mm
05:39 3.3 °C -3.6 °C 1008.4 hPa NW 6.8 km/h 13 km/h 61 % 0 mm
05:44 3.2 °C -3.8 °C 1008.4 hPa NNW 10 km/h 18.5 km/h 60 % 0 mm
05:49 3.2 °C -3.6 °C 1008 hPa NW 7.4 km/h 18.5 km/h 61 % 0 mm
05:54 3.2 °C -3.6 °C 1008.4 hPa NW 9 km/h 13 km/h 61 % 0 mm
05:59 3.1 °C -3.5 °C 1008 hPa WNW 4.5 km/h 9.3 km/h 62 % 0 mm
06:04 3.1 °C -3.3 °C 1008.4 hPa WNW 10.1 km/h 16.7 km/h 63 % 0 mm
06:09 2.9 °C -3.8 °C 1008.4 hPa WNW 14.8 km/h 22.5 km/h 61 % 0 mm
06:14 2.9 °C -3.7 °C 1008.4 hPa WNW 10.6 km/h 18.5 km/h 62 % 0 mm
06:19 2.8 °C -3.7 °C 1008.4 hPa WNW 0.2 km/h 11.1 km/h 62 % 0 mm
06:24 2.7 °C -3.8 °C 1008.4 hPa NW 7.6 km/h 11.1 km/h 62 % 0 mm
06:29 2.7 °C -3.9 °C 1008.4 hPa NW 10.3 km/h 14.8 km/h 62 % 0 mm
06:34 2.6 °C -4.2 °C 1008.7 hPa NW 4 km/h 11.1 km/h 61 % 0 mm
06:39 2.5 °C -4.1 °C 1008.7 hPa NW 2.4 km/h 9.3 km/h 62 % 0 mm
06:44 2.4 °C -4.2 °C 1008.7 hPa WNW 7.4 km/h 14.8 km/h 62 % 0 mm
06:49 2.3 °C -4.3 °C 1008.7 hPa WNW 0.8 km/h 9.3 km/h 62 % 0 mm
06:54 2.2 °C -4.3 °C 1009 hPa NW 8.5 km/h 9.3 km/h 62 % 0 mm
06:59 2.2 °C -4.4 °C 1009 hPa Calm   11.1 km/h 62 % 0 mm
07:04 2.1 °C -4.5 °C 1009 hPa WNW 4.7 km/h 11.3 km/h 62 % 0 mm
07:09 2 °C -4.5 °C 1009.4 hPa NW 6.8 km/h 8 km/h 62 % 0 mm
07:14 1.9 °C -4.6 °C 1009.4 hPa WNW 5.3 km/h 11.1 km/h 62 % 0 mm
07:19 1.9 °C -4.6 °C 1009.4 hPa WNW 8 km/h 16.7 km/h 62 % 0 mm
07:24 1.8 °C -4.7 °C 1009.7 hPa WNW 5.5 km/h 9.3 km/h 62 % 0 mm
07:29 1.8 °C -4.9 °C 1009.7 hPa WNW 4.5 km/h 16.7 km/h 61 % 0 mm
07:34 1.7 °C -5 °C 1009.7 hPa NW 8.5 km/h 13 km/h 61 % 0 mm
07:39 1.7 °C -4.8 °C 1009.7 hPa WNW 3.4 km/h 9.3 km/h 62 % 0 mm
07:44 1.7 °C -4.6 °C 1009.7 hPa WNW 9.2 km/h 12.9 km/h 63 % 0 mm
07:49 1.7 °C -4.8 °C 1010 hPa West 7.7 km/h 11.1 km/h 62 % 0 mm
07:54 1.6 °C -4.9 °C 1010 hPa WSW 9.2 km/h 16.7 km/h 62 % 0 mm
07:59 1.6 °C -4.9 °C 1010 hPa WNW 5 km/h 18.5 km/h 62 % 0 mm
08:04 1.6 °C -4.9 °C 1010.4 hPa NW 7.2 km/h 11.1 km/h 62 % 0 mm
08:09 1.6 °C -4.7 °C 1010.4 hPa NW 4.2 km/h 11.3 km/h 63 % 0 mm
08:14 1.6 °C -4.7 °C 1010.4 hPa NW 4 km/h 13 km/h 63 % 0 mm
08:19 1.7 °C -4.6 °C 1010.4 hPa WNW 2.1 km/h 11.1 km/h 63 % 0 mm
08:24 1.8 °C -4.7 °C 1010.4 hPa WNW 6.6 km/h 11.1 km/h 62 % 0 mm
08:29 2 °C -4.5 °C 1010.4 hPa NW 2.3 km/h 13 km/h 62 % 0 mm
08:34 2.2 °C -4.6 °C 1010.4 hPa NW 6.3 km/h 9.3 km/h 61 % 0 mm
08:39 2.3 °C -4.4 °C 1010.7 hPa NW 7.9 km/h 13 km/h 61 % 0 mm
08:44 2.5 °C -4.7 °C 1010.4 hPa WNW 2.6 km/h 13 km/h 59 % 0 mm
08:49 2.7 °C -4.6 °C 1010.4 hPa NW 1.8 km/h 7.4 km/h 59 % 0 mm
08:54 2.8 °C -4.4 °C 1010.4 hPa WNW 7.2 km/h 14.8 km/h 59 % 0 mm
08:59 2.9 °C -4.5 °C 1010.4 hPa WNW 6.4 km/h 16.7 km/h 58 % 0 mm
09:04 3.1 °C -4.4 °C 1010.7 hPa NW 5 km/h 9.7 km/h 58 % 0 mm
09:09 3.3 °C -4.2 °C 1010.7 hPa NW 4.7 km/h 11.1 km/h 58 % 0 mm
09:14 3.6 °C -4.2 °C 1010.7 hPa NW 7.7 km/h 14.8 km/h 57 % 0 mm
09:19 3.8 °C -3.7 °C 1010.7 hPa NW 2.6 km/h 13 km/h 58 % 0 mm
09:24 4 °C -4 °C 1010.7 hPa WNW 3.2 km/h 8 km/h 56 % 0 mm
09:29 4.2 °C -4.1 °C 1010.4 hPa NNW 8.7 km/h 11.1 km/h 55 % 0 mm
09:34 4.2 °C -4.1 °C 1010.4 hPa NW 7.2 km/h 9.3 km/h 55 % 0 mm
09:39 4.2 °C -3.8 °C 1010.4 hPa NW 6.4 km/h 8 km/h 56 % 0 mm
09:44 4.3 °C -4.2 °C 1010.4 hPa North 3.7 km/h 9.3 km/h 54 % 0 mm
09:49 4.3 °C -3.9 °C 1010.4 hPa NW 0.6 km/h 7.4 km/h 55 % 0 mm
09:54 4.4 °C -3.8 °C 1010.4 hPa NNW 0.8 km/h 5.6 km/h 55 % 0 mm
09:59 4.7 °C -3.6 °C 1010.7 hPa NNW 2.9 km/h 7.4 km/h 55 % 0 mm
10:04 4.8 °C -3.9 °C 1010.7 hPa NNW 3.4 km/h 9.3 km/h 53 % 0 mm
10:09 4.8 °C -4 °C 1010.4 hPa NNW 4 km/h 7.4 km/h 53 % 0 mm
10:14 4.8 °C -3.4 °C 1010.7 hPa NNW 4 km/h 3.7 km/h 55 % 0 mm
10:19 4.9 °C -3.6 °C 1010.4 hPa NNW 3.4 km/h 7.4 km/h 54 % 0 mm
10:24 5.1 °C -4 °C 1010.4 hPa NW 6.9 km/h 11.1 km/h 52 % 0 mm
10:29 5.2 °C -3.9 °C 1010.4 hPa NNW 1.9 km/h 5.6 km/h 52 % 0 mm
10:34 5.4 °C -3.7 °C 1010.7 hPa NW 3.7 km/h 7.4 km/h 52 % 0 mm
10:39 5.5 °C -3.6 °C 1010.7 hPa North 3.9 km/h 8 km/h 52 % 0 mm
10:44 5.8 °C -2.8 °C 1010.7 hPa NNW 0.8 km/h 5.6 km/h 54 % 0 mm
10:49 6.2 °C -3.2 °C 1010.7 hPa NW 1.8 km/h 8 km/h 51 % 0 mm
10:54 6.3 °C -3.1 °C 1010.7 hPa WNW 4 km/h 6.4 km/h 51 % 0 mm
10:59 6.5 °C -2.4 °C 1010.7 hPa NNW 2.9 km/h 9.3 km/h 53 % 0 mm
11:04 6.7 °C -2.8 °C 1010.7 hPa North 3.1 km/h 5.6 km/h 51 % 0 mm
11:09 6.9 °C -3.1 °C 1010.7 hPa NNW 3.4 km/h 9.7 km/h 49 % 0 mm
11:14 7 °C -2.4 °C 1010.7 hPa NNW 0.2 km/h 5.6 km/h 51 % 0 mm
11:19 7.2 °C -3.4 °C 1010.7 hPa NW 1.8 km/h 5.6 km/h 47 % 0 mm
11:24 7.2 °C -3.3 °C 1010.7 hPa NW 1 km/h 5.6 km/h 47 % 0 mm
11:29 7.2 °C -2.8 °C 1010.7 hPa WNW 1.3 km/h 1.6 km/h 49 % 0 mm
11:34 7.1 °C -3.2 °C 1010.7 hPa WNW 6 km/h 3.7 km/h 48 % 0 mm
11:39 7.1 °C -2.9 °C 1010.4 hPa NNW 4.2 km/h 5.6 km/h 49 % 0 mm
11:44 7.1 °C -3.2 °C 1010.4 hPa West 2.9 km/h 1.9 km/h 48 % 0 mm
11:49 7.1 °C -3.5 °C 1010.4 hPa NW 6.1 km/h 11.1 km/h 47 % 0 mm
11:54 7 °C -3 °C 1010 hPa NW 2.1 km/h 5.6 km/h 49 % 0 mm
11:59 6.9 °C -3.7 °C 1010 hPa NW 8.2 km/h 9.7 km/h 47 % 0 mm
12:04 6.7 °C -3.8 °C 1010 hPa NNW 10 km/h 11.3 km/h 47 % 0 mm
12:09 6.5 °C -3.7 °C 1010 hPa NW 1 km/h 5.6 km/h 48 % 0 mm
12:14 6.4 °C -3.5 °C 1010 hPa North 3.5 km/h 5.6 km/h 49 % 0 mm
12:19 6.5 °C -2.7 °C 1010 hPa NW 1.9 km/h 6.4 km/h 52 % 0 mm
12:24 6.6 °C -3.2 °C 1009.7 hPa NW 3.7 km/h 13 km/h 50 % 0 mm
12:29 6.7 °C -3.1 °C 1009.7 hPa NW 9.2 km/h 11.1 km/h 50 % 0 mm
12:34 6.7 °C -3.1 °C 1009.7 hPa WNW 4.2 km/h 13 km/h 50 % 0 mm
12:39 6.8 °C -2.7 °C 1009.7 hPa NW 0.8 km/h 1.9 km/h 51 % 0 mm
12:44 6.7 °C -3.3 °C 1009.7 hPa West 3.5 km/h 7.4 km/h 49 % 0 mm
12:49 6.7 °C -3.6 °C 1009.7 hPa WNW 8 km/h 14.8 km/h 48 % 0 mm
12:54 6.7 °C -3.3 °C 1009.7 hPa NNW 8.5 km/h 7.4 km/h 49 % 0 mm
12:59 6.7 °C -3.1 °C 1009.7 hPa North 2.3 km/h 14.8 km/h 50 % 0 mm
13:04 6.8 °C -2.7 °C 1009.7 hPa WNW 9.3 km/h 16.7 km/h 51 % 0 mm
13:09 6.9 °C -3.1 °C 1009.7 hPa WNW 5.5 km/h 13 km/h 49 % 0 mm
13:14 7 °C -3.3 °C 1009.7 hPa North 5.1 km/h 14.8 km/h 48 % 0 mm
13:19 6.9 °C -3.6 °C 1009.7 hPa NNW 6.8 km/h 11.3 km/h 47 % 0 mm
13:24 7 °C -3.6 °C 1009.7 hPa WNW 4.8 km/h 11.1 km/h 47 % 0 mm
13:29 7.1 °C -3.5 °C 1009.7 hPa NNW 5.5 km/h 13 km/h 47 % 0 mm
13:34 7.2 °C -3.7 °C 1009.7 hPa NNW 6.6 km/h 18.5 km/h 46 % 0 mm
13:39 7.2 °C -3.7 °C 1009.7 hPa NW 11.6 km/h 18.5 km/h 46 % 0 mm
13:44 7.1 °C -3.2 °C 1009.7 hPa WSW 4.8 km/h 16.7 km/h 48 % 0 mm
13:49 7 °C -3.8 °C 1009.7 hPa WNW 2.9 km/h 9.3 km/h 46 % 0 mm
13:54 7 °C -4.2 °C 1009.7 hPa WNW 7.2 km/h 14.8 km/h 45 % 0 mm
13:59 6.9 °C -4.2 °C 1009.7 hPa West 10.3 km/h 18.5 km/h 45 % 0 mm
14:04 6.9 °C -4.5 °C 1009.7 hPa West 8.9 km/h 18.5 km/h 44 % 0 mm
14:09 6.9 °C -4.2 °C 1009.7 hPa WSW 6.3 km/h 18.5 km/h 45 % 0 mm
14:14 6.9 °C -4.8 °C 1009.7 hPa SW 6 km/h 18.5 km/h 43 % 0 mm
Crab Meadow Weather
Compliments of Weather Underground - 2.25 mb

Script developed by  Jim McMurry - jmcmurry@mwt.net Adapted for the template by  Wim van der Kuil - Leuven-Template.eu

Extremes: Currently the driest state is Nevada with an annual rainfall of only nine inches.